Tonopah, NV

10:54 AM PDT on August 19, 2017 (GMT -0700)
Tonopah

Weather History for KTPH - February, 2014

Change the Weather History Date:

Tuesday, February 11, 2014

  Actual Average Record
Temperature  
Mean Temperature 41 °F 36 °F  
Max Temperature 57 °F 48 °F 66 °F (1996)
Min Temperature 25 °F 24 °F 6 °F (1955)
Degree Days  
Heating Degree Days 24 29  
Month to date heating degree days 345 329  
Since 1 July heating degree days 3418 3580  
Cooling Degree Days 0 0  
Month to date cooling degree days 0 0  
Year to date cooling degree days 0 0  
Moisture  
Dew Point 16 °F    
Average Humidity 50    
Maximum Humidity 88    
Minimum Humidity 12    
Precipitation  
Precipitation 0.00 in 0.01 in 0.20 in (1959)
Month to date precipitation T 0.18  
Year to date precipitation 0.11 0.67  
Sea Level Pressure  
Sea Level Pressure 30.18 in    
Wind  
Wind Speed 9 mph (North)    
Max Wind Speed 24 mph    
Max Gust Speed 31 mph    
Visibility 10 miles    
Events      
T = Trace of Precipitation, MM = Missing Value Source: NWS Daily Summary

Daily Weather History Graph

Daily Weather History Graph

Search for Another Location

Airport or City:

Trip Planner

Search our weather history database for the weather conditions in past years. The results will help you decide how hot, cold, wet, or windy it might be!

Date:

Astronomy

Feb. 11, 2014 Rise Set
Actual Time 6:42 AM PST 5:22 PM PST
Civil Twilight 6:15 AM PST 5:49 PM PST
Nautical Twilight 5:44 AM PST 6:21 PM PST
Astronomical Twilight 5:14 AM PST 6:51 PM PST
Moon 2:48 PM PST (2/11) 4:21 AM PST (2/11)
Length of Visible Light 11h 34m
Length of Day
10h 39m
Waxing Gibbous, 91% of the Moon is Illuminated
Feb 11
Waxing Gibbous
Feb 14
Full
Feb 22
Last Quarter
Mar 1
New
Mar 8
First Quarter

Hourly Weather History & Observations

Time (PST) Temp. Windchill Dew Point Humidity Pressure Visibility Wind Dir Wind Speed Gust Speed Precip Events Conditions
12:56 AM 34.0 °F - 25.0 °F 70% 30.17 in 10.0 mi Calm Calm - N/A   Clear
1:56 AM 32.0 °F 24.8 °F 25.0 °F 75% 30.16 in 10.0 mi North 8.1 mph - N/A   Clear
2:56 AM 30.9 °F 21.7 °F 24.1 °F 76% 30.17 in 10.0 mi North 11.5 mph - N/A   Clear
3:56 AM 30.9 °F 23.5 °F 24.1 °F 76% 30.16 in 10.0 mi NNW 8.1 mph - N/A   Clear
4:56 AM 27.0 °F 20.5 °F 21.0 °F 78% 30.19 in 10.0 mi NNE 5.8 mph - N/A   Clear
5:56 AM 28.0 °F 21.7 °F 21.9 °F 78% 30.20 in 10.0 mi North 5.8 mph - N/A   Clear
6:56 AM 25.0 °F 16.3 °F 21.0 °F 85% 30.22 in 10.0 mi North 8.1 mph - N/A   Clear
7:56 AM 28.0 °F - 21.9 °F 78% 30.23 in 10.0 mi Calm Calm - N/A   Clear
8:56 AM 36.0 °F - 24.1 °F 62% 30.22 in 10.0 mi Calm Calm - N/A   Clear
9:56 AM 42.1 °F - 26.1 °F 53% 30.23 in 10.0 mi Calm Calm - N/A   Clear
10:56 AM 50.0 °F - 19.0 °F 29% 30.18 in 10.0 mi NNW 11.5 mph - N/A   Clear
11:56 AM 53.1 °F - 12.0 °F 20% 30.15 in 10.0 mi NNW 23.0 mph 28.8 mph N/A   Clear
12:56 PM 54.0 °F - 8.1 °F 16% 30.12 in 10.0 mi NNW 18.4 mph - N/A   Clear
1:56 PM 55.0 °F - 9.0 °F 16% 30.11 in 10.0 mi North 15.0 mph 31.1 mph N/A   Clear
2:56 PM 55.9 °F - 12.0 °F 18% 30.11 in 10.0 mi NNW 16.1 mph 24.2 mph N/A   Clear
3:56 PM 55.9 °F - 5.0 °F 13% 30.12 in 10.0 mi NNW 20.7 mph - N/A   Clear
4:56 PM 54.0 °F - 8.1 °F 16% 30.13 in 10.0 mi NNW 12.7 mph - N/A   Clear
5:56 PM 45.0 °F 40.6 °F 8.1 °F 22% 30.17 in 10.0 mi WNW 8.1 mph - N/A   Clear
6:56 PM 43.0 °F 37.7 °F 9.0 °F 25% 30.21 in 10.0 mi NNW 9.2 mph - N/A   Clear
7:56 PM 42.1 °F 37.7 °F 10.0 °F 27% 30.22 in 10.0 mi NNW 6.9 mph - N/A   Clear
8:56 PM 37.9 °F 34.4 °F 10.9 °F 33% 30.23 in 10.0 mi NE 4.6 mph - N/A   Clear
9:56 PM 36.0 °F 29.0 °F 14.0 °F 41% 30.23 in 10.0 mi North 9.2 mph - N/A   Clear
10:56 PM 34.0 °F 26.0 °F 15.1 °F 46% 30.22 in 10.0 mi North 10.4 mph - N/A   Clear
11:56 PM 34.0 °F 28.0 °F 17.1 °F 50% 30.20 in 10.0 mi North 6.9 mph - N/A   Mostly Cloudy